Location: Quebec
(46.8000°N, 71.2500°W)
Time: 02:00:07
(UTC-04:00)

Envisat - Pass Details

Date: 09 October 2017
Orbit: 764 x 766 km, 98.2° (Epoch: 22 October)

Event Time Altitude Azimuth Distance (km) Brightness Sun altitude
Exits shadow 21:44:40 19° 257° (WSW) 1,757 5.2 -36.2°
Maximum altitude 21:45:26 20° 269° (W) 1,729 5.2 -36.3°
Drops below altitude 10° 21:49:06 10° 316° (NW) 2,311 6.2 -36.9°
Sets 21:52:03 0° 333° (NNW) 3,243 7.0 -37.3°
